Wind_Speed
39 39 38 36 36 37 39 40 41 42 43 44 44 44 43 42 42 43 42 40 42 45 45 42 45 45 39 51 51 46 45 43 46 48 48 47 47 46 43 42 44 45 48 52
45 44 44 43 40 39 39 41 42 45 45 39 42 43 44 47 47 44 45 45 46 45 43 47 48 47 55 51 43 38 42 43 44 43 44 43 43 42 43 44 46 49 52 55
56 53 52 49 46 46 47 47 49 49 47 46 48 48 49 51 48 47 49 52 54 55 54 53 56 60 56 44 42 44 43 43 44 42 39 39 40 41 44 46 49 52 54 57
60 61 61 56 53 52 53 53 57 57 55 54 54 54 54 55 55 56 56 58 61 60 57 56 55 51 43 44 46 43 43 43 41 39 39 39 41 43 46 49 51 53 55 56
54 58 59 57 56 55 56 56 54 54 54 55 56 57 59 59 59 60 61 61 57 54 48 46 44 39 40 41 39 40 41 41 40 39 40 40 43 46 48 49 50 52 53 52
46 50 52 52 51 52 53 52 48 48 48 50 52 54 53 53 55 54 53 51 51 48 37 41 37 35 35 36 37 38 39 38 38 38 39 41 44 46 47 48 49 49 49 48
44 47 50 49 49 49 48 45 45 45 47 48 49 48 47 47 47 45 44 41 36 41 37 33 29 29 31 34 36 36 35 36 36 37 39 42 43 45 47 47 46 46 46 42
37 40 42 43 44 44 41 38 36 37 39 41 42 40 39 38 34 34 33 29 24 25 23 25 26 27 30 32 33 32 33 35 36 38 41 43 44 45 44 43 43 43 42 40
34 33 35 36 36 35 33 31 29 30 31 34 35 35 35 31 25 25 21 21 19 18 20 22 23 26 28 29 30 29 32 34 37 40 42 43 43 42 40 40 41 42 41 39
33 31 32 32 31 31 30 28 27 26 26 29 29 29 28 28 26 24 26 21 19 19 19 20 22 25 26 26 25 28 32 36 39 41 42 41 40 38 37 39 41 40 37 35
29 27 27 27 28 28 26 23 22 22 23 25 22 22 20 15 14 17 18 16 17 17 18 21 22 21 21 22 25 29 33 37 39 40 40 38 37 36 38 38 38 36 32 28
24 26 23 23 22 20 19 18 16 16 23 20 17 17 17 16 15 13 12 12 13 16 18 17 15 17 19 22 26 31 35 36 37 37 37 36 37 38 37 36 34 32 28 24
15 18 18 17 15 14 11 14 17 15 13 16 16 17 17 15 11 8 8 10 12 14 13 11 12 16 20 25 28 32 34 34 35 35 36 37 38 38 36 33 31 30 27 22
7 11 15 13 11 14 17 19 19 11 6 6 6 7 7 5 3 3 7 10 11 9 7 8 12 17 23 26 29 31 32 33 33 35 37 39 38 35 31 28 28 28 25 20
15 18 20 22 21 16 12 10 9 6 3 2 2 3 3 2 1 5 7 6 5 4 5 9 15 20 24 27 29 30 31 32 35 38 39 37 34 30 26 25 25 25 23 19
18 22 26 23 16 9 3 1 3 4 3 3 3 3 1 2 4 4 1 1 1 2 7 13 18 22 24 27 29 30 33 36 38 38 36 32 29 25 22 22 22 23 21 17
16 20 22 16 13 8 3 2 4 6 6 5 3 1 2 4 5 5 5 3 2 6 11 15 19 22 25 27 30 34 36 37 35 33 30 28 24 21 20 20 21 21 20 17
12 13 12 11 7 4 4 5 7 8 7 6 4 3 3 5 6 5 5 4 4 8 12 16 20 24 28 31 34 34 34 33 31 29 26 24 21 20 20 20 21 21 20 19
18 16 15 13 7 2 3 4 4 5 5 4 3 3 4 5 5 6 6 5 6 9 15 19 23 27 30 32 32 32 32 31 29 26 23 22 20 20 21 22 21 20 17 16
20 21 20 16 12 4 3 3 2 2 2 2 2 3 3 4 7 8 7 6 7 12 17 22 25 28 29 30 31 32 33 32 28 25 23 22 21 21 22 23 23 22 18 14
20 19 16 13 11 6 4 3 2 3 2 1 1 2 5 9 11 10 8 7 9 14 18 22 24 26 28 31 33 35 35 33 30 27 25 23 23 25 25 25 25 25 22 17
18 16 12 9 9 8 7 6 6 5 3 2 1 4 10 14 14 11 9 7 11 15 18 21 23 25 28 33 36 37 36 33 32 30 28 26 26 27 28 28 27 27 25 22
17 16 14 12 12 10 8 7 7 7 5 3 3 9 14 16 14 11 8 8 14 16 18 20 22 25 29 34 37 38 37 33 30 30 30 30 29 29 29 29 28 27 27 24
17 16 16 14 13 11 10 10 10 9 6 5 7 13 18 17 14 11 8 11 15 16 18 19 23 27 30 34 36 38 38 38 34 29 28 29 30 30 31 31 30 29 27 26
17 16 16 15 14 12 11 12 12 10 8 7 10 17 19 17 14 11 8 12 13 15 17 20 24 28 32 33 35 36 37 38 39 38 35 33 32 32 31 31 32 31 30 28
18 17 16 16 16 16 13 12 12 11 9 9 14 20 21 19 16 11 9 11 11 14 17 20 24 29 32 34 34 35 35 36 38 40 40 38 36 36 36 35 35 35 34 33
18 18 18 18 17 15 13 14 13 11 10 12 16 21 22 20 16 13 10 10 10 13 15 19 23 27 31 33 34 35 36 37 37 39 41 42 42 41 41 41 41 41 41 41
Wind_Direction
253 252 252 251 250 249 251 253 258 263 267 270 273 278 282 281 282 284 287 287 286 287 290 294 304 309 305 322 322 321 317 311 310 312 314 314 314 312 310 311 312 312 313 313
249 252 251 251 253 254 257 259 261 263 264 266 270 274 277 279 279 281 282 283 288 292 294 297 301 302 310 316 315 316 315 312 310 313 313 313 311 311 312 314 316 315 315 313
248 250 252 252 255 258 260 265 268 267 267 264 266 275 278 282 285 282 282 284 289 293 298 298 299 305 311 312 312 314 315 316 317 316 313 311 310 313 315 317 317 316 317 313
251 252 255 258 257 258 260 264 269 268 267 267 269 273 277 279 281 283 285 288 291 294 296 298 302 305 304 304 307 312 318 322 321 317 314 314 315 318 319 320 319 318 315 313
253 256 259 260 261 260 260 261 263 265 267 269 271 273 274 277 279 281 283 287 290 293 293 297 302 304 303 303 307 315 321 321 318 316 317 318 320 321 320 320 318 316 314 317
259 259 261 262 262 263 264 265 265 266 267 267 269 271 273 275 276 278 282 285 287 283 273 292 293 298 300 304 311 317 318 315 314 316 317 320 322 321 320 318 317 317 320 324
260 261 262 263 265 265 265 267 266 266 266 267 267 270 272 273 275 279 282 280 263 265 274 281 285 292 299 306 313 315 313 312 312 315 319 322 323 321 320 319 321 325 327 327
261 261 262 263 265 267 269 269 268 267 265 265 265 267 269 272 277 280 264 260 260 266 274 282 289 298 305 311 311 310 309 309 313 319 323 325 323 322 321 324 328 329 330 329
264 264 264 264 265 266 269 271 269 264 263 264 264 264 263 267 271 263 270 289 287 282 280 286 301 309 311 309 308 308 308 312 319 323 326 325 324 323 326 329 331 332 331 329
264 264 263 265 267 269 272 271 265 265 267 266 264 263 265 271 274 276 280 286 282 282 289 305 313 311 308 307 308 308 313 319 323 327 327 325 324 327 332 333 333 334 332 331
261 253 252 261 265 267 270 266 260 262 265 261 261 261 262 263 254 254 260 263 275 292 308 311 308 307 307 307 310 317 321 324 328 328 327 327 330 334 336 334 334 335 335 336
253 242 248 262 262 257 255 251 249 244 238 244 250 249 245 238 231 247 266 278 297 306 305 306 312 310 310 314 323 325 326 330 329 328 329 331 334 335 335 336 337 338 339 339
262 245 244 242 240 236 217 185 178 193 200 205 216 236 239 226 227 254 285 303 304 303 310 320 314 313 322 328 331 332 331 330 329 330 333 335 335 334 335 337 340 344 344 344
270 218 208 195 177 163 161 165 168 164 167 191 205 205 205 201 219 276 295 302 306 306 315 317 321 332 334 335 338 334 332 332 332 334 336 335 333 334 337 341 346 349 349 352
132 140 147 145 143 139 134 138 164 191 190 154 118 118 123 131 319 312 309 307 293 292 324 337 341 341 341 343 339 336 337 338 338 337 334 333 335 339 343 347 353 356 357 3
144 150 146 147 150 150 139 115 192 188 166 106 100 115 104 5 350 343 1 175 209 348 360 352 349 348 349 345 343 344 345 342 338 336 337 341 344 348 352 357 2 5 7 12
154 159 155 159 173 194 211 197 179 162 153 146 140 128 44 38 53 92 125 137 71 21 4 356 355 355 354 352 352 351 345 340 339 343 348 352 357 2 4 8 13 17 22 28
141 152 174 188 170 150 148 152 156 155 149 133 110 72 39 62 85 112 122 109 53 19 3 2 1 1 1 358 354 348 344 345 350 354 358 4 10 14 15 16 19 24 32 41
159 173 200 207 212 205 130 119 127 122 117 113 115 72 48 74 122 142 134 102 48 17 11 10 6 8 4 357 353 353 355 359 2 6 12 16 20 21 21 21 24 27 34 45
184 195 208 224 244 277 19 20 54 99 111 96 59 48 64 134 154 146 120 84 38 20 19 10 10 9 4 3 5 9 12 13 16 22 25 27 29 28 26 27 29 29 33 42
193 198 209 231 256 282 298 280 230 203 168 117 54 92 146 152 144 129 106 74 32 31 20 13 14 11 13 16 19 22 24 27 31 33 34 35 34 33 32 33 33 34 39 46
192 196 203 218 245 247 246 247 230 211 184 199 197 138 152 150 142 130 109 68 43 36 23 21 17 19 24 26 28 30 32 36 38 38 39 38 36 35 35 36 37 39 44 51
190 192 193 203 221 218 215 217 213 208 197 202 163 144 153 149 140 126 106 64 55 37 30 27 26 32 33 33 34 35 36 38 40 41 41 41 39 38 37 39 41 43 46 53
189 190 193 197 208 201 187 188 190 194 195 194 163 158 159 152 143 130 102 70 55 42 39 34 38 42 42 40 39 39 39 40 41 42 40 39 41 42 42 43 45 47 49 53
198 198 199 195 197 195 187 180 180 184 184 179 171 164 159 153 146 133 103 74 56 52 48 44 47 49 49 46 44 43 42 43 44 46 47 47 48 48 48 48 49 51 54 56
195 196 195 190 191 196 195 184 182 178 174 172 173 164 160 157 149 138 107 79 61 61 55 53 54 54 53 50 49 47 45 45 46 47 49 51 53 54 55 56 57 58 59 61
187 188 191 188 184 191 189 177 176 174 171 171 169 165 164 161 154 141 115 87 73 73 66 63 60 58 56 54 53 52 53 52 51 52 53 55 57 58 60 62 63 64 64 64
Height
5736 5739 5742 5743 5743 5744 5746 5747 5749 5750 5752 5754 5756 5756 5755 5755 5754 5753 5752 5749 5745 5743 5741 5738 5734 5728 5724 5721 5717 5711 5706 5697 5691 5683 5678 5671 5664 5658 5652 5643 5637 5629 5622 5613
5726 5727 5730 5733 5736 5737 5738 5739 5741 5742 5744 5746 5745 5747 5748 5747 5746 5745 5743 5739 5735 5734 5732 5728 5725 5721 5717 5712 5706 5700 5694 5686 5679 5672 5666 5660 5655 5649 5642 5633 5625 5618 5610 5602
5715 5718 5719 5723 5729 5730 5732 5732 5731 5732 5735 5736 5736 5736 5737 5737 5736 5735 5731 5728 5726 5723 5722 5719 5716 5712 5706 5700 5695 5690 5683 5676 5671 5664 5658 5653 5646 5638 5631 5623 5615 5607 5597 5589
5702 5705 5707 5716 5719 5720 5720 5720 5719 5720 5723 5725 5727 5726 5725 5725 5725 5722 5720 5716 5713 5713 5711 5709 5705 5701 5695 5691 5686 5680 5674 5668 5661 5656 5650 5644 5637 5629 5621 5613 5604 5595 5586 5579
5692 5692 5695 5703 5704 5704 5706 5707 5707 5708 5711 5712 5712 5712 5713 5713 5712 5710 5708 5705 5704 5703 5701 5698 5694 5690 5687 5683 5677 5672 5665 5659 5655 5650 5643 5636 5628 5621 5613 5604 5594 5585 5578 5569
5680 5680 5683 5689 5690 5690 5692 5694 5696 5697 5698 5699 5699 5701 5702 5702 5700 5699 5699 5698 5696 5694 5689 5689 5686 5683 5679 5675 5670 5665 5659 5654 5649 5642 5636 5628 5621 5613 5604 5595 5586 5578 5569 5559
5669 5670 5672 5675 5675 5676 5681 5682 5682 5683 5685 5687 5687 5689 5690 5690 5690 5690 5691 5691 5685 5682 5684 5682 5679 5676 5673 5669 5664 5659 5654 5649 5643 5636 5628 5620 5612 5604 5595 5586 5577 5568 5559 5550
5660 5661 5663 5663 5663 5664 5667 5669 5671 5671 5673 5675 5676 5678 5679 5680 5681 5682 5682 5683 5678 5678 5678 5677 5674 5670 5666 5662 5658 5653 5648 5642 5635 5628 5620 5611 5603 5595 5587 5578 5569 5559 5550 5542
5650 5653 5653 5652 5653 5655 5658 5659 5661 5661 5663 5664 5666 5668 5669 5671 5675 5677 5674 5675 5673 5673 5673 5670 5666 5663 5659 5656 5652 5647 5641 5634 5627 5619 5611 5603 5595 5588 5580 5571 5562 5552 5543 5535
5641 5643 5643 5644 5645 5646 5648 5651 5652 5654 5655 5656 5657 5659 5662 5665 5668 5669 5670 5669 5670 5670 5667 5662 5658 5657 5654 5650 5645 5641 5634 5627 5620 5611 5604 5597 5590 5582 5573 5564 5555 5546 5537 5530
5632 5635 5635 5636 5637 5638 5640 5642 5645 5647 5648 5647 5651 5653 5656 5659 5661 5663 5664 5665 5666 5664 5659 5656 5655 5653 5648 5644 5641 5634 5628 5621 5613 5605 5598 5591 5583 5574 5566 5558 5550 5541 5533 5526
5623 5625 5628 5629 5629 5631 5633 5636 5639 5641 5641 5643 5646 5648 5652 5655 5656 5659 5661 5661 5659 5658 5656 5654 5651 5647 5644 5641 5634 5629 5622 5615 5607 5600 5593 5585 5576 5568 5560 5553 5544 5536 5529 5523
5616 5617 5621 5623 5625 5628 5631 5634 5637 5641 5642 5644 5645 5647 5650 5651 5653 5655 5656 5656 5655 5654 5651 5649 5648 5646 5641 5635 5630 5624 5617 5611 5603 5596 5587 5579 5570 5562 5555 5548 5540 5532 5526 5520
5612 5612 5614 5620 5625 5628 5632 5634 5638 5641 5643 5645 5646 5647 5649 5650 5651 5652 5653 5653 5651 5651 5650 5649 5646 5641 5637 5632 5626 5620 5614 5606 5599 5590 5582 5573 5565 5557 5550 5543 5537 5530 5523 5517
5614 5614 5617 5622 5627 5630 5633 5635 5638 5641 5645 5646 5646 5648 5649 5650 5650 5651 5650 5650 5650 5651 5649 5646 5642 5639 5635 5629 5624 5617 5609 5602 5593 5585 5576 5568 5560 5552 5546 5540 5535 5528 5522 5517
5618 5619 5622 5626 5629 5631 5633 5636 5639 5642 5644 5645 5647 5648 5649 5649 5648 5649 5649 5650 5651 5650 5647 5644 5641 5637 5633 5628 5621 5614 5605 5597 5589 5580 5571 5562 5555 5549 5544 5539 5534 5528 5522 5517
5622 5624 5627 5630 5634 5635 5637 5639 5640 5642 5644 5646 5647 5648 5648 5648 5649 5650 5650 5650 5651 5649 5646 5643 5641 5638 5632 5626 5618 5610 5602 5593 5584 5575 5566 5559 5553 5548 5544 5539 5534 5529 5524 5519
5626 5627 5628 5631 5636 5640 5641 5641 5642 5643 5645 5645 5646 5648 5649 5648 5649 5650 5651 5652 5651 5649 5647 5645 5642 5637 5630 5623 5616 5608 5599 5590 5580 5572 5565 5558 5553 5549 5545 5540 5536 5531 5526 5522
5627 5629 5630 5632 5636 5640 5642 5642 5643 5644 5645 5646 5647 5648 5648 5649 5650 5652 5653 5653 5653 5651 5649 5647 5642 5636 5630 5623 5616 5607 5597 5587 5578 5570 5565 5559 5555 5551 5547 5543 5538 5533 5529 5526
5626 5628 5630 5631 5634 5636 5638 5640 5642 5644 5646 5647 5648 5648 5649 5651 5653 5654 5655 5655 5655 5653 5651 5648 5643 5637 5631 5624 5616 5606 5596 5586 5578 5572 5567 5562 5558 5554 5550 5545 5540 5536 5531 5528
5625 5628 5630 5631 5631 5634 5638 5641 5644 5645 5647 5647 5649 5649 5651 5653 5655 5656 5657 5657 5657 5655 5653 5649 5644 5639 5633 5625 5616 5606 5597 5588 5581 5576 5571 5567 5563 5558 5554 5549 5544 5539 5534 5530
5622 5626 5628 5630 5632 5635 5639 5641 5644 5646 5647 5648 5649 5651 5653 5655 5656 5658 5659 5660 5659 5657 5655 5652 5647 5642 5635 5627 5618 5609 5601 5594 5588 5582 5577 5572 5568 5563 5558 5553 5548 5543 5539 5535
5621 5625 5628 5631 5633 5637 5639 5642 5645 5646 5647 5649 5651 5652 5655 5657 5659 5661 5662 5663 5661 5660 5658 5654 5650 5644 5638 5630 5622 5614 5607 5600 5595 5589 5584 5578 5573 5568 5563 5558 5553 5549 5545 5541
5621 5624 5627 5630 5632 5636 5640 5642 5645 5647 5648 5651 5652 5654 5657 5659 5662 5664 5665 5665 5664 5663 5661 5657 5652 5647 5641 5635 5628 5621 5615 5608 5601 5595 5590 5585 5579 5574 5569 5564 5559 5555 5551 5548
5619 5622 5626 5629 5632 5635 5639 5641 5644 5647 5649 5652 5654 5656 5658 5661 5664 5666 5667 5667 5667 5666 5664 5660 5656 5651 5646 5641 5635 5630 5624 5617 5610 5603 5596 5591 5586 5581 5576 5571 5567 5562 5559 5555
5616 5620 5624 5627 5631 5634 5637 5641 5644 5646 5649 5652 5654 5657 5659 5663 5666 5668 5669 5669 5669 5668 5666 5663 5660 5656 5651 5647 5642 5638 5632 5626 5619 5612 5606 5600 5594 5589 5585 5580 5576 5572 5568 5564
5615 5618 5621 5625 5628 5632 5637 5641 5644 5646 5649 5652 5654 5657 5660 5664 5667 5669 5670 5671 5672 5671 5670 5667 5664 5661 5657 5653 5650 5645 5640 5635 5629 5623 5616 5610 5605 5599 5595 5591 5587 5583 5579 5575